RH
54 46 46 44 45 57 61 64 66 56 60 62 53 44 38 34 35 34 33 33 31 31 34 35 39 36 34 36 38 44 52 64 73 68 73 69 68 99 100 100 88 77 100 99
51 52 41 39 44 53 54 48 52 57 47 35 32 33 31 41 46 45 44 47 40 30 29 27 33 37 42 50 61 68 71 98 100 84 80 83 88 80 100 100 74 89 82 97
62 56 49 61 80 67 57 57 55 46 35 36 42 40 40 37 36 33 28 25 17 19 24 26 24 25 23 27 34 48 69 77 74 89 78 96 96 85 82 93 68 82 80 88
79 68 74 72 68 60 49 42 39 37 42 40 34 32 30 22 22 18 7 7 8 10 20 20 17 22 25 32 36 37 39 52 60 68 70 75 65 72 98 82 60 72 77 98
70 79 60 52 52 50 37 34 31 33 28 22 22 15 10 11 8 7 12 13 16 22 21 17 16 16 14 13 14 14 15 17 21 31 34 43 54 64 73 96 100 72 77 69
54 55 46 52 51 41 35 34 37 34 12 13 12 9 18 12 13 17 22 25 18 14 13 10 10 9 9 9 9 9 9 9 10 11 14 18 17 24 42 42 71 100 100 46
82 79 73 66 60 46 40 53 35 14 9 11 16 20 19 24 22 17 15 13 9 8 8 8 7 8 8 9 9 8 9 8 8 9 8 9 10 12 15 20 21 58 89 64
92 89 58 58 28 13 15 14 13 13 21 29 28 19 13 11 10 9 9 8 8 8 8 8 8 7 7 7 8 8 8 7 7 7 7 7 7 8 9 10 13 17 53 40
77 38 16 16 12 12 14 18 23 26 26 20 12 9 9 9 9 9 9 9 7 6 6 7 7 7 7 8 8 8 8 9 8 7 7 7 6 6 7 8 9 12 17 32
13 14 16 18 22 36 43 27 24 21 14 10 8 8 9 8 7 6 5 6 7 7 7 7 8 10 11 11 10 9 8 7 6 6 6 6 6 6 6 6 8 8 10 13
18 35 40 51 58 52 32 22 19 14 9 8 10 10 8 7 6 7 7 8 8 9 10 12 12 10 9 8 7 6 5 5 5 5 4 4 4 4 5 6 7 8 7 11
76 76 89 70 48 44 34 28 14 9 9 11 13 10 7 7 8 9 10 10 10 14 14 11 8 8 8 7 7 6 6 5 6 6 4 5 4 4 3 4 6 7 8 7
96 92 78 55 69 51 32 16 13 11 12 13 12 10 8 8 9 10 11 11 14 14 10 8 7 8 10 9 8 7 6 7 7 8 7 6 5 4 4 3 5 5 6 7
94 94 62 72 64 32 18 18 16 17 16 14 13 10 9 9 9 11 12 11 14 16 10 8 7 10 11 13 12 9 11 17 13 11 10 7 6 4 4 3 4 6 6 7
98 70 72 67 30 20 22 23 24 24 20 17 14 14 12 11 10 11 12 12 13 16 13 9 8 9 10 13 18 20 24 21 18 20 13 10 7 5 4 4 3 4 5 6
83 78 68 34 22 24 24 28 30 32 30 25 21 17 14 13 12 11 10 12 14 14 17 14 8 8 10 12 14 25 32 28 22 25 16 14 9 6 5 4 4 4 5 8
78 67 36 25 23 25 28 29 32 33 34 34 30 25 22 21 21 20 15 11 11 13 14 18 16 8 7 11 15 14 29 38 27 24 23 15 12 8 6 5 5 5 6 6
64 40 23 24 26 26 31 29 31 33 32 33 35 35 34 31 25 19 20 21 15 12 13 13 15 13 7 9 13 15 17 30 31 24 25 19 14 12 9 7 6 6 7 7
56 26 25 28 28 26 31 30 27 32 32 33 34 37 40 40 35 26 25 23 23 18 13 12 14 16 12 8 10 14 16 22 27 24 19 20 17 13 13 9 9 7 8 8
28 26 30 28 30 28 29 32 29 29 32 34 34 34 35 37 41 42 38 27 20 19 17 14 12 12 14 12 9 12 15 18 22 22 20 18 15 15 13 12 9 10 8 7
26 29 33 28 30 29 30 33 33 29 29 29 30 30 32 36 40 43 43 38 31 24 22 18 14 12 12 13 11 9 12 16 16 17 21 17 15 12 14 12 12 10 10 10
27 34 34 33 34 32 34 33 31 29 32 30 29 30 37 40 37 38 43 45 40 28 20 17 17 14 12 12 12 11 9 13 14 14 18 18 16 13 13 14 12 12 10 9
32 43 39 40 37 37 37 37 35 30 36 34 35 34 36 41 36 35 41 44 42 37 31 23 17 14 13 12 11 12 12 9 12 13 14 17 15 15 14 14 13 12 11 10
44 49 48 47 40 40 41 39 41 37 38 40 37 34 37 35 34 38 38 40 42 46 37 27 22 16 14 12 11 10 11 12 9 11 12 13 15 14 15 14 13 11 12 10
40 55 53 51 48 43 45 42 43 45 42 41 42 38 36 35 38 38 38 42 46 44 42 33 24 19 14 12 11 10 9 10 11 8 9 11 12 13 13 13 13 12 10 11
46 64 59 58 56 51 52 48 44 49 54 50 49 44 36 36 40 40 40 49 50 47 46 39 29 20 15 11 11 10 9 8 9 10 8 8 9 12 12 12 12 12 10 11
Wind_Speed
102 100 100 101 103 103 106 108 110 115 117 120 123 125 127 127 127 128 128 123 122 120 114 111 111 109 105 102 98 93 90 87 82 79 77 73 65 53 45 44 42 43 48 36
102 104 104 106 108 111 114 114 116 120 122 124 125 123 121 118 116 115 112 111 111 110 111 110 105 101 101 100 96 92 89 83 81 78 70 65 56 54 51 49 47 45 40 50
108 110 111 109 111 113 115 116 119 118 115 114 113 112 108 110 110 106 105 109 109 107 105 103 104 102 101 98 96 90 86 84 78 74 71 68 64 59 56 53 51 50 49 45
103 103 99 104 104 102 102 101 103 107 104 101 102 104 105 104 102 103 99 102 103 99 99 101 101 101 100 99 98 95 92 90 88 84 80 78 75 68 62 59 56 55 55 54
82 81 85 88 93 93 91 95 96 97 99 100 100 99 98 96 96 99 101 101 102 102 102 102 103 101 99 99 99 98 95 95 92 89 87 84 84 79 72 68 63 60 61 61
81 84 88 90 94 95 96 96 97 98 95 94 93 92 95 98 99 100 101 102 102 102 102 101 101 102 103 104 102 100 99 95 93 94 93 90 88 85 83 80 74 70 70 67
87 90 91 94 95 96 95 93 93 92 93 91 91 93 96 99 101 102 103 102 100 100 100 99 100 100 98 96 94 93 92 91 87 87 91 91 88 88 87 90 86 82 81 79
87 87 91 89 87 86 85 84 83 84 85 86 89 92 94 94 95 95 95 97 97 96 94 92 90 87 84 82 80 77 76 75 79 73 77 81 81 86 94 95 95 91 90 88
87 88 83 81 80 78 76 75 78 81 83 86 87 88 85 83 81 82 83 83 82 79 77 76 74 71 69 66 63 61 60 60 65 62 63 68 70 70 79 92 98 98 97 97
74 69 68 68 69 68 69 75 77 80 82 81 79 75 73 71 71 70 68 67 66 65 65 64 61 58 56 53 52 51 50 52 54 52 54 56 56 58 65 76 94 100 101 106
57 52 55 56 61 65 70 74 79 82 80 76 75 72 69 66 65 64 62 60 58 57 57 55 54 50 48 47 46 46 45 45 47 49 47 45 48 51 58 67 82 97 104 112
42 44 47 53 58 66 73 79 81 76 73 77 76 71 65 62 59 57 53 53 52 49 50 50 48 44 39 40 40 41 41 41 38 42 41 39 40 45 52 62 75 90 102 107
37 41 45 52 61 70 77 80 77 75 77 76 66 59 56 56 54 49 46 45 44 44 43 43 41 35 33 32 36 38 38 37 34 35 35 32 36 38 46 56 70 78 96 107
35 41 48 56 64 73 74 75 76 77 76 69 62 56 52 50 45 44 41 40 40 39 38 36 36 31 23 25 31 35 35 34 33 30 29 28 32 32 40 49 63 76 84 99
36 44 53 58 65 64 61 63 65 66 65 61 54 52 50 47 45 43 41 38 37 35 35 33 32 32 26 26 24 29 33 33 31 27 24 26 28 31 38 46 59 72 78 96
38 48 53 57 58 51 51 51 55 58 59 58 57 53 49 46 45 43 40 38 38 37 36 35 30 29 28 27 23 25 30 32 31 24 22 24 26 31 36 45 54 64 71 92
41 50 53 55 51 43 44 47 48 52 55 58 60 60 58 56 54 52 50 44 39 36 35 33 33 32 27 27 30 28 27 29 29 25 22 22 24 30 34 43 51 60 68 95
43 50 53 47 40 40 42 44 45 47 51 56 60 64 65 62 56 51 48 48 46 43 40 37 34 30 29 24 27 30 28 27 29 26 22 22 24 28 33 41 51 58 62 83
45 46 45 40 36 34 38 44 46 46 49 53 58 61 64 66 66 61 57 51 48 47 43 40 36 34 30 26 25 29 33 28 28 29 25 25 24 31 36 42 50 62 76 91
42 43 39 34 33 34 36 42 44 46 50 53 55 58 61 62 66 67 63 59 54 46 42 42 39 34 30 28 25 25 31 32 27 30 29 28 29 32 40 46 54 60 74 102
42 40 35 33 30 31 34 38 42 44 48 50 53 55 59 63 63 63 65 65 59 53 48 45 41 39 35 29 24 22 26 32 32 30 32 32 33 35 40 48 54 63 69 90
40 36 32 32 30 30 34 37 40 44 47 50 53 57 61 63 63 61 62 65 63 57 53 46 41 39 38 33 29 24 20 27 32 34 34 36 36 38 41 47 55 62 71 88
34 31 31 31 29 31 34 37 42 45 48 51 54 57 59 61 61 61 60 59 64 66 60 55 48 39 35 34 32 26 24 24 28 33 37 38 40 41 43 48 55 63 70 86
30 28 29 32 31 31 34 37 40 44 47 50 53 56 58 60 62 62 58 58 62 66 62 56 53 47 39 34 32 31 25 22 24 29 35 41 43 45 47 50 55 63 70 91
31 29 29 31 32 31 34 36 39 43 46 49 53 56 58 60 63 62 59 59 60 63 64 60 54 51 45 39 35 31 29 25 24 26 31 39 44 48 51 55 58 63 76 95
30 29 31 31 33 34 35 37 40 42 46 49 52 55 58 61 62 62 62 59 59 63 65 65 59 53 47 41 34 33 30 28 25 25 29 34 42 49 53 57 62 68 78 99
Wind_Direction
278 278 278 279 280 280 282 285 287 287 287 289 288 290 289 289 290 290 290 291 289 283 283 284 284 284 281 280 278 276 275 275 272 273 272 271 267 253 240 233 228 232 235 227
281 280 281 281 283 283 284 285 286 286 287 288 287 287 288 289 288 288 287 287 287 287 284 285 283 282 281 279 276 275 275 273 274 274 273 265 258 254 241 230 226 223 228 228
283 282 282 281 282 283 283 284 285 289 289 288 287 286 287 288 287 287 287 287 288 285 282 281 281 282 281 281 280 279 277 275 272 269 267 263 261 259 246 233 226 220 218 220
283 283 284 283 283 285 284 286 288 289 287 290 289 288 287 288 289 288 288 287 284 282 285 286 286 285 284 283 282 280 278 276 273 270 268 265 261 257 249 239 227 219 218 213
281 282 284 282 283 283 285 288 289 292 294 292 292 292 292 291 290 291 289 289 287 285 286 286 285 284 282 281 279 277 275 273 271 267 265 262 260 257 252 238 234 228 220 215
287 288 289 291 292 291 291 293 295 297 299 296 296 296 292 292 292 290 288 287 288 288 286 285 283 281 280 281 279 277 275 272 269 266 263 259 257 254 252 248 232 229 229 223
289 290 291 292 293 294 294 294 296 296 298 296 294 295 295 293 291 290 289 288 287 286 285 283 282 281 282 280 279 277 275 274 268 265 261 256 250 248 245 245 240 228 224 225
287 287 289 291 294 296 295 297 297 298 297 298 297 297 297 294 292 290 289 288 286 285 284 284 284 282 281 281 280 278 277 274 272 265 261 258 251 243 239 234 232 229 225 223
283 286 288 289 293 295 297 298 298 298 297 298 302 302 299 297 295 293 291 290 289 289 287 285 284 283 282 281 279 278 274 270 268 265 260 256 252 243 237 233 228 222 220 219
286 288 289 292 295 298 298 298 299 298 301 305 306 306 305 304 302 299 296 295 294 293 291 289 287 285 285 284 281 278 275 273 271 268 260 257 251 243 234 228 225 222 214 210
288 289 292 297 300 302 303 303 305 309 310 316 318 317 315 311 308 307 305 303 301 299 295 292 289 288 287 285 282 280 275 271 272 269 267 262 253 242 232 225 221 220 214 202
289 297 302 305 309 311 310 312 315 316 322 326 324 321 320 316 313 312 309 306 302 298 293 290 289 287 284 285 282 280 279 277 273 272 270 264 254 241 231 223 219 216 213 207
299 305 311 312 313 315 317 320 322 325 330 330 326 325 321 320 320 320 314 312 307 302 295 290 286 287 289 298 290 283 282 282 281 277 274 267 258 243 231 223 218 216 211 209
305 312 312 314 317 320 322 324 327 330 332 333 335 333 331 330 329 327 324 321 316 309 302 300 289 281 289 301 296 289 285 282 282 277 275 265 256 242 232 221 214 215 208 204
310 312 313 314 321 323 327 331 333 337 339 341 343 344 343 341 340 339 336 332 330 321 312 308 296 286 281 285 285 288 281 279 278 277 274 265 247 239 224 217 215 214 209 201
311 307 314 318 325 326 332 340 343 349 353 352 352 352 355 353 351 348 347 346 341 336 330 322 310 296 281 281 278 275 278 276 274 272 273 263 249 235 223 215 214 213 207 204
308 313 317 321 324 327 335 341 347 353 357 1 3 1 3 5 4 1 356 352 349 346 340 330 319 312 298 283 282 274 270 272 268 264 264 256 247 237 223 216 214 209 204 194
312 317 325 322 324 330 337 341 345 353 359 4 7 9 10 9 8 7 5 1 354 349 348 344 335 324 314 290 282 280 273 271 266 257 254 253 239 232 224 215 209 203 200 194
314 326 325 322 323 329 334 339 346 349 358 3 8 10 10 11 11 8 7 7 4 357 351 349 343 333 325 313 286 282 275 265 268 258 248 243 234 225 221 214 211 205 194 191
323 326 320 321 323 329 335 342 346 353 356 360 4 8 11 11 12 12 8 7 5 3 359 351 345 341 332 323 309 283 279 265 259 258 250 243 230 226 223 217 211 210 204 194
326 320 316 318 321 329 335 339 344 353 357 358 1 3 7 11 11 10 10 9 6 5 2 357 350 343 338 332 318 303 282 272 263 251 248 243 239 225 224 220 216 213 210 204
321 314 314 320 321 327 333 336 342 348 355 358 360 3 6 7 7 8 9 9 8 5 3 1 357 349 340 335 326 315 290 276 269 255 242 242 242 234 225 222 218 216 211 207
318 312 316 322 323 324 329 334 339 346 353 356 359 2 3 4 4 6 6 7 8 9 5 359 355 351 345 336 329 321 305 284 270 262 244 239 240 238 232 223 218 215 213 206
315 312 317 321 323 326 329 331 337 343 348 351 357 359 360 0 3 3 3 4 8 7 5 2 357 353 348 341 330 321 313 297 271 261 251 240 236 236 232 228 221 216 211 202
316 311 313 317 322 324 328 330 334 338 343 347 353 357 357 359 360 1 2 4 5 5 4 3 360 357 352 344 334 323 313 303 288 265 256 245 238 235 232 227 224 217 209 204
317 312 313 316 320 325 327 330 333 337 339 344 349 352 354 356 358 359 1 2 2 3 3 2 1 358 354 349 339 328 316 305 292 278 262 252 241 236 234 230 224 219 214 207